Regional Weather Roundup
Issued by NWS

Home | Current Version | Previous Version | Graphics & Text | Print | Product List | Glossary On
Versions: 1 2 3 4 5 6 7 8 9 10 11 12 13 14 15 16 17 18 19 20 21 22 23 24 25 26 27 28 29 30 31 32 33 34 35 36 37 38 39 40 41 42 43 44 45 46 47 48 49 50
000
ASUS43 KBIS 241501
RWRND

NORTH DAKOTA REGIONAL WEATHER ROUNDUP
NATIONAL WEATHER SERVICE BISMARCK ND
1000 AM CDT SUN MAY 24 2015

NOTE: "FAIR" INDICATES FEW OR NO CLOUDS BELOW 12,000 FEET WITH NO
SIGNIFICANT WEATHER AND/OR OBSTRUCTIONS TO VISIBILITY.


NDZ001>003-009>011-017-241600-
NORTHWEST NORTH DAKOTA

CITY           SKY/WX    TMP DP  RH WIND       PRES   REMARKS
WILLISTON      MOSUNNY   62  46  55 CALM      30.06S
MINOT          MOSUNNY   64  47  53 VRB5      30.06S
MINOT AFB      PTSUNNY   67  54  61 SE5       30.04F
$$

NDZ018>021-031>035-040>046-241600-
SOUTHWEST NORTH DAKOTA

CITY           SKY/WX    TMP DP  RH WIND       PRES   REMARKS
BISMARCK       PTSUNNY   62  52  69 E8        30.04F
DICKINSON      CLOUDY    54  50  86 NE8       30.04F
GARRISON         N/A     61  52  72 SE5       30.05F
HETTINGER ARPT LGT RAIN  53  50  89 NE12      30.03F FOG
$$

NDZ004>008-012>016-024-026-027-054-241600-
NORTHEAST NORTH DAKOTA

CITY           SKY/WX    TMP DP  RH WIND       PRES   REMARKS
GRAND FORKS    PTSUNNY   68  50  52 CALM      30.05F
GRND FRKS AFB  PTSUNNY   66  51  58 E3        30.06F
DEVILS LAKE    SUNNY     64  50  59 E6        30.06S
$$

NDZ022-023-025-028>030-036>039-047>053-241600-
SOUTHEAST NORTH DAKOTA

CITY           SKY/WX    TMP DP  RH WIND       PRES   REMARKS
FARGO          CLOUDY    65  49  56 NE10      30.04F
JAMESTOWN      CLOUDY    64  50  60 NE10      30.03F
$$




USA.gov is the U.S. government's official web portal to all federal, state and local government web resources and services.